This demonstration page uses our WeatherBlox Daily Observations layout. Learn more.

Left ArrowRight Arrow

38.20091, -84.87328

Hourly Observations for August 1, 2016

Temp ( °F °C ) Dew Point ( °F °C ) Humidity (%) Winds ( mph kmh ) Pressure ( in mb ) Visibility ( mi km ) Precip ( " mm )
12:53 am 00:53 Partly Cloudy 73 22.8 69 20.6 87 87 Calm 30.03 1017 7 11 0.00 0.00
1:53 am 01:53 Mostly Clear 72 22.2 69 20.6 91 91 Calm 30.03 1017 9 14 0.00 0.00
2:53 am 02:53 Partly Cloudy 72 22.2 69 20.6 91 91 Calm 30.02 1017 9 14 0.00 0.00
3:53 am 03:53 Clear 71 21.7 68 20 90 90 Calm 30.02 1017 7 11 0.00 0.00
4:53 am 04:53 Clear with Mist and Fog 70 21.1 67 19.4 90 90 Calm 30.02 1017 6 10 0.00 0.00
5:53 am 05:53 Clear with Mist and Fog 69 20.6 66 18.9 90 90 Calm 30.03 1017 3 5 0.00 0.00
6:53 am 06:53 Sunny with Mist and Fog 70 21.1 66 18.9 87 87 Calm 30.04 1017 6 10 0.00 0.00
7:53 am 07:53 Mostly Cloudy 72 22.2 69 20.6 91 91 ESE 3 6 30.05 1018 7 11 0.00 0.00
8:53 am 08:53 Mostly Sunny 75 23.9 70 21.1 84 84 SSE 6 9 30.05 1018 10 16 0.00 0.00
9:53 am 09:53 Sunny 79 26.1 71 21.7 77 77 Calm 30.05 1018 10 16 0.00 0.00
10:53 am 10:53 Partly Cloudy 81 27.2 71 21.7 72 72 S 3 6 30.06 1018 10 16 0.00 0.00
11:53 am 11:53 Mostly Cloudy 82 27.8 71 21.7 69 69 SSW 6 9 30.05 1018 10 16 0.00 0.00
12:53 pm 12:53 Mostly Sunny 82 27.8 72 22.2 72 72 WSW 7 11 30.06 1018 10 16 0.00 0.00
1:32 pm 13:32 Cloudy with Heavy Rain 79 26.1 74 23.3 85 85 WNW 6 9 30.06 1018 2 3 0.05 1.27
1:44 pm 13:44 Cloudy with Rain 78 25.6 74 23.3 87 87 WNW 7 11 30.06 1018 3 5 0.08 2.03
1:53 pm 13:53 Cloudy with Rain 78 25.6 74 23.3 87 87 VRB 6 9 30.06 1018 3 5 0.10 2.54
2:53 pm 14:53 Sunny 82 27.8 72 22.2 72 72 NNW 6 9 30.04 1017 10 16 0.00 0.03
3:53 pm 15:53 Partly Cloudy 84 28.9 72 22.2 67 67 Calm 30.02 1017 10 16 0.00 0.00
4:53 pm 16:53 Mostly Cloudy 84 28.9 72 22.2 67 67 VRB 3 6 30.01 1016 10 16 0.00 0.00
5:22 pm 17:22 Cloudy with Heavy Rain 80 26.7 73 22.8 79 79 E 3 6 30.00 1016 2 3 0.07 1.78
5:29 pm 17:29 Mostly Cloudy with Light Rain 81 27.2 73 22.8 77 77 Calm 30.00 1016 3 5 0.08 2.03
5:53 pm 17:53 Mostly Cloudy with Thunderstorms 77 25 71 21.7 82 82 SSE 14 22 30.00 1016 10 16 0.08 2.03
6:14 pm 18:14 Cloudy with Strong Thunderstorms 75 23.9 70 21.1 84 84 SW 15 24 30.00 1016 2 2 0.18 4.57
6:16 pm 18:16 Cloudy with Strong Thunderstorms 74 23.3 70 21.1 88 88 SSW 13 20 30.00 1016 1 1 0.29 7.37
6:33 pm 18:33 Cloudy with Strong Thunderstorms 74 23.3 70 21.1 88 88 ESE 7 11 30.00 1016 2 3 0.63 16.00
6:40 pm 18:40 Cloudy with Nearby Thunderstorms 74 23.3 70 21.1 88 88 SE 3 6 30.00 1016 3 4 0.65 16.51
6:53 pm 18:53 Cloudy with Nearby Thunderstorms 74 23.3 71 21.7 91 91 Calm 30.02 1017 3 5 0.67 17.02
7:31 pm 19:31 Mostly Cloudy with Rain 74 23.3 71 21.7 91 91 S 5 7 30.00 1016 4 6 0.07 1.78
7:38 pm 19:38 Mostly Cloudy with Nearby Thunderstorms 75 23.9 71 21.7 88 88 S 6 9 30.00 1016 8 13 0.07 1.78
7:53 pm 19:53 Partly Cloudy with Nearby Thunderstorms 74 23.3 71 21.7 91 91 ESE 5 7 30.02 1017 10 16 0.07 1.78
8:17 pm 20:17 Cloudy with Nearby Thunderstorms 74 23.3 71 21.7 91 91 SE 3 6 30.03 1017 4 6 0.02 0.51
8:25 pm 20:25 Cloudy with Light Rain 74 23.3 71 21.7 91 91 ESE 5 7 30.03 1017 4 6 0.04 1.02
8:53 pm 20:53 Mostly Cloudy with Light Rain 74 23.3 70 21.1 88 88 SE 3 6 30.03 1017 9 14 0.05 1.27
9:53 pm 21:53 Cloudy 74 23.3 71 21.7 91 91 Calm 30.03 1017 10 16 0.01 0.25
10:50 pm 22:50 Mostly Cloudy 73 23 72 22 94 94 Calm 30.03 1017 10 16 0.00 0.00
10:53 pm 22:53 Mostly Cloudy 74 23.3 71 21.7 91 91 S 3 6 30.03 1017 10 16 0.00 0.00
11:53 pm 23:53 Mostly Cloudy 73 22.8 70 21.1 90 90 SW 3 6 30.03 1017 10 16 0.00 0.00

Powered by AerisWeather